Starlink 32871

operational
NORAD ID: 62924 Int'l Des: 2025-027 Owner: SPXS Country: US Constellation: starlink
LEOCIRCULAR

About Starlink 32871

Description loading...

Live Position

Loading 3D Globe...

Upcoming Passes

Altitude History

Altitude vs Time

uPlot chart will show altitude changes over time

Two-Line Element Set

1 62924U 25027T 25302.99114951 .00027080 00000-0 98915-3 0 9992
2 62924 42.9990 146.9832 0000779 257.0233 103.0531 15.27607215 41550
Epoch: Oct 29, 2025 • Age: 28 hours

Current Status

Altitude 484.5 km
Velocity 7.62 km/s
Sub-Earth Point -11.00°S, 29.23°E
Launch Date Feb 8, 2025
Age 0.7 years
Type internet

Technical Details

Classification Payload
Mass 730.00 kg
Dry Mass 700.00 kg
Total Mass 730.00 kg
Length 0.30 m
Diameter 4.10 m
Span 29.00 m
Shape Box + pan
Manufacturer SPXS
Bus Type Starlink V2M
Phase Status In Orbit
Owner/State SPXS/US

Large Constellations

Loading constellations...